Orbital Elements at Epoch 2459200.5 (2020-Dec-17.0) TDB
Reference: JPL 23 (heliocentric ecliptic J2000)
Element | Value | Uncertainty (1-sigma) | Units |
e | .1574811788399585 | 4.4963e-08 | |
a | 2.610798168541306 | 1.5389e-08 | au |
q | 2.199646595246216 | 1.1761e-07 | au |
i | 4.340157713926858 | 6.3029e-06 | deg |
node | 202.9983414699496 | 5.1229e-05 | deg |
peri | 46.11221730464252 | 5.5086e-05 | deg |
M | 180.6440505419507 | 1.9969e-05 | deg |
tp | 2459968.164862366376 (2023-Jan-23.66486237) | 8.8705e-05 | TDB |
period | 1540.842951053234 4.22 | 1.3623e-05 3.73e-08 | d yr |
n | .2336383469541294 | 2.0657e-09 | deg/d |
Q | 3.021949741836396 | 1.7812e-08 | au |
|
| | Orbit Determination Parameters
Additional Information
|